This is the latest recevied weather packets stored in our database for station/object KA1JKB. If no packets are shown the sender has not sent any weather packets the latest 10 day(s).
| Time | Temp. | Humidity | Pressure | Rain* | Wind** | Luminosity | Snow |
|---|---|---|---|---|---|---|---|
| 1787830904 | 16.11° C | 99% | 1011.2 hPa | 0 mm | - | 34 W/m² | - |
| 1787830604 | 15.56° C | 99% | 1011.3 hPa | 0 mm | - | 28 W/m² | - |
| 1787830303 | 15.56° C | 99% | 1011.2 hPa | 0 mm | - | 25 W/m² | - |
| 1787829998 | 15.56° C | 99% | 1011 hPa | 0 mm | - | 21 W/m² | - |
| 1787829698 | 15.56° C | 99% | 1010.8 hPa | 0 mm | - | 18 W/m² | - |
| 1787829393 | 15.56° C | 99% | 1010.9 hPa | 0 mm | - | 13 W/m² | - |
| 1787829089 | 15° C | 99% | 1011 hPa | 0 mm | - | 9 W/m² | - |
| 1787828784 | 15° C | 99% | 1010.8 hPa | 0 mm | - | 6 W/m² | - |
| 1787828481 | 13.89° C | 99% | 1010.9 hPa | 0 mm | - | 4 W/m² | - |
| 1787828180 | 13.89° C | 99% | 1010.7 hPa | 0 mm | - | 1 W/m² | - |
| 1787827879 | 13.89° C | 99% | 1011 hPa | 0 mm | - | 0 W/m² | - |
| 1787827575 | 13.33° C | 99% | 1010.8 hPa | 0 mm | - | 0 W/m² | - |
| 1787827275 | 13.33° C | 99% | 1010.5 hPa | 0 mm | - | 0 W/m² | - |
| 1787826974 | 13.33° C | 99% | 1010.5 hPa | 0 mm | - | 0 W/m² | - |
| 1787826673 | 13.89° C | 99% | 1010.7 hPa | 0 mm | - | 0 W/m² | - |
| 1787826369 | 13.89° C | 99% | 1010.6 hPa | 0 mm | - | 0 W/m² | - |
| 1787826066 | 14.44° C | 99% | 1010.5 hPa | 0 mm | - | 0 W/m² | - |
| 1787825764 | 14.44° C | 99% | 1010.5 hPa | 0 mm | - | 0 W/m² | - |
| 1787825463 | 14.44° C | 99% | 1010.3 hPa | 0 mm | - | 0 W/m² | - |
| 1787825162 | 13.89° C | 99% | 1010.3 hPa | 0 mm | - | 0 W/m² | - |
| 1787824860 | 14.44° C | 99% | 1010.4 hPa | 0 mm | - | 0 W/m² | - |
| 1787824559 | 13.89° C | 99% | 1010.4 hPa | 0 mm | - | 0 W/m² | - |
| 1787824254 | 13.89° C | 99% | 1010.3 hPa | 0 mm | - | 0 W/m² | - |
| 1787823950 | 13.89° C | 99% | 1010.2 hPa | 0 mm | - | 0 W/m² | - |
| 1787823645 | 13.89° C | 99% | 1010.2 hPa | 0 mm | - | 0 W/m² | - |
* Rain latest hour (hover to see other rain measurements)
** Current wind speed in m/s (hover to see current wind gust speed)